Starlink 32815

operational
NORAD ID: 62956 Int'l Des: 2025-029 Owner: SPXS Country: US Constellation: starlink
LEOCIRCULAR

About Starlink 32815

Description loading...

Live Position

Loading 3D Globe...

Upcoming Passes

Altitude History

Altitude vs Time

uPlot chart will show altitude changes over time

Two-Line Element Set

1 62956U 25029J 25305.17490730 .00066710 00000-0 22455-2 0 9992
2 62956 53.1594 107.1067 0001375 83.4576 276.6581 15.30183444 41685
Epoch: Nov 1, 2025 • Age: 45 hours

Current Status

Altitude 489.5 km
Velocity 7.62 km/s
Sub-Earth Point -42.54°S, 97.8°W
Launch Date Feb 11, 2025
Age 0.7 years
Type internet

Technical Details

Classification Payload
Mass 730.00 kg
Dry Mass 700.00 kg
Total Mass 730.00 kg
Length 0.30 m
Diameter 4.10 m
Span 29.00 m
Shape Box + pan
Manufacturer SPXS
Bus Type Starlink V2M
Phase Status In Orbit
Owner/State SPXS/US

Large Constellations

Loading constellations...